Date String (YYYY-MM-DD hh:mm:ss) UTC,Instrument flags,Ambient pressure (hPa),Sample flow (lpm),Bypass flow (lpm),Sample temperature (°C),Ambient temperature (°C),ASC tube jacket temperature (°C),LED temperature (°C),Box temperature (°C),Sample RH (%),Span deviation,Mass concentration (μg/m³),Mass concentration (μg/m³),Mass concentration (μg/m³)
DateTimeUTC,F1_M11,P_M11,Q1_M11,Q2_M11,T1_M11,T2_M11,T3_M11,T4_M11,T5_M11,U1_M11,ZSPAN_M11,X2_M11,X0_M11,X1_M11
2023-04-29 04:00:00,,0834.2,4.99,0.00,24.8,23.2,00.0,33.4,26.4,13.4,0000.0,0003.91,0009.90,0002.06
2023-04-29 04:01:00,,0834.2,5.00,0.00,24.8,23.2,00.0,33.3,26.4,13.3,0000.0,0003.91,0009.84,0002.07
2023-04-29 04:02:00,,0834.2,5.00,0.00,24.8,23.2,00.0,33.3,26.4,13.4,0000.0,0003.88,0009.32,0002.06
2023-04-29 04:03:00,,0834.1,5.01,0.00,24.8,23.2,00.0,33.3,26.3,13.4,0000.0,0003.87,0009.79,0002.08
2023-04-29 04:04:00,,0834.2,5.01,0.00,24.8,23.1,00.0,33.3,26.3,13.5,0000.0,0003.98,0010.20,0002.12
2023-04-29 04:05:00,,0834.2,5.01,0.00,24.8,23.2,00.0,33.3,26.3,13.6,0000.0,0004.05,0010.35,0002.14
2023-04-29 04:06:00,,0834.2,4.99,0.00,24.8,23.1,00.0,33.3,26.3,13.6,0000.0,0004.05,0010.21,0002.14
2023-04-29 04:07:00,,0834.2,4.99,0.00,24.7,23.1,00.0,33.3,26.3,13.6,0000.0,0004.05,0010.21,0002.14
2023-04-29 04:08:00,,0834.2,5.00,0.00,24.7,23.1,00.0,33.3,26.3,13.6,0000.0,0004.10,0010.43,0002.15
2023-04-29 04:09:00,,0834.2,5.01,0.00,24.7,23.1,00.0,33.2,26.3,13.5,0000.0,0004.12,0010.76,0002.16
2023-04-29 04:10:00,,0834.2,5.00,0.00,24.7,23.1,00.0,33.2,26.3,13.4,0000.0,0004.21,0010.97,0002.18
2023-04-29 04:11:00,,0834.2,5.00,0.00,24.7,23.1,00.0,33.2,26.3,13.5,0000.0,0004.21,0011.08,0002.17
2023-04-29 04:12:00,,0834.2,4.98,0.00,24.7,23.1,00.0,33.2,26.2,13.4,0000.0,0004.23,0011.11,0002.17
2023-04-29 04:13:00,,0834.2,5.01,0.00,24.7,23.1,00.0,33.2,26.2,13.4,0000.0,0004.22,0011.05,0002.17
2023-04-29 04:14:00,,0834.2,5.01,0.00,24.7,23.1,00.0,33.2,26.2,13.3,0000.0,0004.23,0010.61,0002.18
2023-04-29 04:15:00,,0834.2,5.00,0.00,24.6,23.1,00.0,33.2,26.2,13.2,0000.0,0004.20,0010.27,0002.16
2023-04-29 04:16:00,,0834.2,4.99,0.00,24.6,23.1,00.0,33.2,26.2,13.2,0000.0,0004.13,0010.10,0002.16
2023-04-29 04:17:00,,0834.2,5.00,0.00,24.6,23.0,00.0,33.2,26.2,13.3,0000.0,0004.13,0010.13,0002.16
2023-04-29 04:18:00,,0834.2,5.00,0.00,24.6,23.0,00.0,33.1,26.2,13.3,0000.0,0004.10,0010.04,0002.15
2023-04-29 04:19:00,,0834.2,5.00,0.00,24.6,23.0,00.0,33.1,26.1,13.3,0000.0,0004.01,0009.89,0002.15
2023-04-29 04:20:00,,0834.1,5.00,0.00,24.6,23.0,00.0,33.1,26.1,13.1,0000.0,0004.01,0009.98,0002.13
2023-04-29 04:21:00,,0834.1,5.00,0.00,24.6,23.0,00.0,33.1,26.1,13.0,0000.0,0003.96,0009.64,0002.12
2023-04-29 04:22:00,,0834.1,5.01,0.00,24.6,23.0,00.0,33.1,26.1,13.0,0000.0,0003.92,0009.32,0002.10
2023-04-29 04:23:00,,0834.1,5.00,0.00,24.6,23.0,00.0,33.1,26.1,13.0,0000.0,0003.87,0009.29,0002.08
2023-04-29 04:24:00,,0834.1,5.00,0.00,24.5,23.0,00.0,33.1,26.1,13.0,0000.0,0003.89,0010.01,0002.06
2023-04-29 04:25:00,,0834.1,4.98,0.00,24.5,23.0,00.0,33.1,26.1,13.0,0000.0,0003.95,0010.22,0002.05
2023-04-29 04:26:00,,0834.1,5.00,0.00,24.5,23.0,00.0,33.0,26.1,13.0,0000.0,0003.96,0010.26,0002.04
2023-04-29 04:27:00,,0834.1,5.01,0.00,24.5,22.9,00.0,33.0,26.1,13.0,0000.0,0003.97,0010.20,0002.04
2023-04-29 04:28:00,,0834.1,5.00,0.00,24.5,22.9,00.0,33.0,26.1,13.1,0000.0,0003.97,0010.21,0002.03
2023-04-29 04:29:00,,0834.1,4.99,0.00,24.5,22.9,00.0,33.0,26.0,13.2,0000.0,0003.95,0010.21,0002.02
2023-04-29 04:30:00,,0834.1,4.99,0.00,24.5,22.9,00.0,33.0,26.0,13.2,0000.0,0004.02,0010.33,0002.01
2023-04-29 04:31:00,,0834.0,5.00,0.00,24.5,22.9,00.0,33.0,26.0,13.2,0000.0,0003.99,0009.94,0001.99
2023-04-29 04:32:00,,0834.0,5.01,0.00,24.5,22.9,00.0,33.0,26.0,13.2,0000.0,0004.00,0010.09,0001.98
2023-04-29 04:33:00,,0834.1,4.99,0.00,24.4,22.9,00.0,33.0,26.0,13.3,0000.0,0004.07,0010.28,0002.01
2023-04-29 04:34:00,,0834.1,5.01,0.00,24.4,22.8,00.0,33.0,26.0,13.3,0000.0,0004.05,0010.06,0002.00
2023-04-29 04:35:00,,0834.0,5.01,0.00,24.4,22.8,00.0,32.9,25.9,13.4,0000.0,0004.02,0009.29,0002.01
2023-04-29 04:36:00,,0834.1,5.00,0.00,24.4,22.8,00.0,32.9,26.0,13.4,0000.0,0003.99,0009.28,0002.01
2023-04-29 04:37:00,,0834.0,5.00,0.00,24.4,22.8,00.0,32.9,25.9,13.4,0000.0,0003.98,0009.51,0002.03
2023-04-29 04:38:00,,0834.1,4.99,0.00,24.4,22.7,00.0,32.9,25.9,13.4,0000.0,0003.99,0009.76,0002.04
2023-04-29 04:39:00,,0834.0,4.99,0.00,24.4,22.7,00.0,32.9,25.9,13.4,0000.0,0004.01,0009.76,0002.06
2023-04-29 04:40:00,,0834.0,5.01,0.00,24.4,22.7,00.0,32.9,25.9,13.4,0000.0,0004.04,0009.84,0002.06
2023-04-29 04:41:00,,0834.0,5.01,0.00,24.3,22.8,00.0,32.9,25.9,13.3,0000.0,0004.06,0009.92,0002.07
2023-04-29 04:42:00,,0834.0,5.00,0.00,24.3,22.8,00.0,32.9,25.9,13.4,0000.0,0004.12,0010.19,0002.09
2023-04-29 04:43:00,,0834.0,4.99,0.00,24.3,22.7,00.0,32.8,25.8,13.3,0000.0,0004.12,0010.20,0002.12
2023-04-29 04:44:00,,0834.0,5.00,0.00,24.3,22.7,00.0,32.8,25.8,13.3,0000.0,0004.07,0010.10,0002.11
2023-04-29 04:45:00,,0834.0,5.00,0.00,24.3,22.7,00.0,32.8,25.9,13.4,0000.0,0004.08,0010.18,0002.10
2023-04-29 04:46:00,,0834.0,5.00,0.00,24.3,22.7,00.0,32.8,25.9,13.3,0000.0,0004.12,0010.48,0002.10
2023-04-29 04:47:00,,0834.0,5.00,0.00,24.3,22.7,00.0,32.8,25.8,13.3,0000.0,0004.13,0010.61,0002.08
2023-04-29 04:48:00,,0834.0,5.01,0.00,24.3,22.7,00.0,32.8,25.8,13.3,0000.0,0004.09,0010.27,0002.06
2023-04-29 04:49:00,,0834.0,5.00,0.00,24.3,22.7,00.0,32.8,25.9,13.4,0000.0,0004.08,0009.99,0002.06
2023-04-29 04:50:00,,0834.0,4.98,0.00,24.3,22.7,00.0,32.8,25.8,13.4,0000.0,0004.08,0010.19,0002.06
2023-04-29 04:51:00,,0834.0,5.00,0.00,24.2,22.6,00.0,32.8,25.7,13.5,0000.0,0004.04,0010.00,0002.06
2023-04-29 04:52:00,,0834.0,5.00,0.00,24.2,22.6,00.0,32.7,25.7,13.5,0000.0,0004.03,0010.02,0002.06
2023-04-29 04:53:00,,0834.0,5.00,0.00,24.2,22.6,00.0,32.7,25.7,13.4,0000.0,0003.99,0009.83,0002.05
2023-04-29 04:54:00,,0834.0,5.01,0.00,24.2,22.6,00.0,32.7,25.7,13.4,0000.0,0003.97,0009.66,0002.04
2023-04-29 04:55:00,,0834.0,5.01,0.00,24.2,22.6,00.0,32.7,25.7,13.5,0000.0,0003.95,0009.56,0002.03
2023-04-29 04:56:00,,0834.0,5.00,0.00,24.2,22.6,00.0,32.7,25.7,13.4,0000.0,0003.93,0009.93,0002.03
2023-04-29 04:57:00,,0834.0,4.98,0.00,24.2,22.5,00.0,32.7,25.7,13.3,0000.0,0003.90,0009.89,0002.03
2023-04-29 04:58:00,,0834.0,5.00,0.00,24.2,22.5,00.0,32.7,25.7,13.3,0000.0,0003.87,0009.62,0002.05
2023-04-29 04:59:00,,0834.0,5.00,0.00,24.2,22.5,00.0,32.7,25.6,13.2,0000.0,0003.94,0009.82,0002.05
